Location: Hermaringen
(48.5952°N, 10.2585°E)
Time: 04:53:23
(UTC+00:00)

Transit 2A - Pass Details

Date: 25 February 2026
Orbit: 590 x 954 km, 66.7° (Epoch: 14 March)

Event Time Altitude Azimuth Distance (km) Brightness Sun altitude
Rises 19:23:16 0° 320° (NW) 3,552 10.3 -24.9°
Reaches altitude 10° 19:26:00 10° 314° (NW) 2,564 9.5 -25.3°
Maximum altitude 19:31:29 40° 247° (WSW) 1,215 7.3 -26.2°
Enters shadow 19:34:27 22° 192° (SSW) 1,679 7.7 -26.6°
